Location: Bidart
(43.4376°N, 1.5913°W)
Time: 13:31:33
(UTC+00:00)

USA 229 DEB - Pass Details

Date: 18 April 2026
Orbit: 844 x 1364 km, 63.4° (Epoch: 10 January)

Event Time Altitude Azimuth Distance (km) Brightness Sun altitude
Rises 02:56:04 0° 314° (NW) 4,101 6.7 -23.4°
Reaches altitude 10° 02:59:11 10° 303° (WNW) 3,208 6.0 -22.9°
Enters shadow 03:03:25 24° 272° (W) 2,376 5.1 -22.4°
